Year,Month,Day,Hour,Minute,Value (Times are PST for temperature in C)
2015,06,29,00,00,23.70
2015,06,29,00,01,23.70
2015,06,29,00,02,23.70
2015,06,29,00,03,23.70
2015,06,29,00,04,23.70
2015,06,29,00,05,23.60
2015,06,29,00,06,23.50
2015,06,29,00,07,23.40
2015,06,29,00,08,23.40
2015,06,29,00,09,23.30
2015,06,29,00,10,23.20
2015,06,29,00,11,23.20
2015,06,29,00,12,23.20
2015,06,29,00,13,23.20
2015,06,29,00,14,23.20
2015,06,29,00,15,23.20
2015,06,29,00,16,23.20
2015,06,29,00,17,23.10
2015,06,29,00,18,23.00
2015,06,29,00,19,23.00
2015,06,29,00,20,22.90
2015,06,29,00,21,22.90
2015,06,29,00,22,22.80
2015,06,29,00,23,22.70
2015,06,29,00,24,22.70
2015,06,29,00,25,22.70
2015,06,29,00,26,22.60
2015,06,29,00,27,22.60
2015,06,29,00,28,22.60
2015,06,29,00,29,22.50
2015,06,29,00,30,22.50
2015,06,29,00,31,22.40
2015,06,29,00,32,22.40
2015,06,29,00,33,22.40
2015,06,29,00,34,22.40
2015,06,29,00,35,22.40
2015,06,29,00,36,22.40
2015,06,29,00,37,22.30
2015,06,29,00,38,22.30
2015,06,29,00,39,22.30
2015,06,29,00,40,22.30
2015,06,29,00,41,22.30
2015,06,29,00,42,22.30
2015,06,29,00,43,22.30
2015,06,29,00,44,22.30
2015,06,29,00,45,22.30
2015,06,29,00,46,22.30
2015,06,29,00,47,22.40
2015,06,29,00,48,22.60
2015,06,29,00,49,22.70
2015,06,29,00,50,22.80
2015,06,29,00,51,22.80
2015,06,29,00,52,22.90
2015,06,29,00,53,23.00
2015,06,29,00,54,23.10
2015,06,29,00,55,23.20
2015,06,29,00,56,23.20
2015,06,29,00,57,23.30
2015,06,29,00,58,23.30
2015,06,29,00,59,23.20
2015,06,29,01,00,23.10
2015,06,29,01,01,22.90
2015,06,29,01,02,22.80
2015,06,29,01,03,22.80
2015,06,29,01,04,22.70
2015,06,29,01,05,22.60
2015,06,29,01,06,22.60
2015,06,29,01,07,22.50
2015,06,29,01,08,22.40
2015,06,29,01,09,22.30
2015,06,29,01,10,22.30
2015,06,29,01,11,22.20
2015,06,29,01,12,22.10
2015,06,29,01,13,22.10
2015,06,29,01,14,22.00
2015,06,29,01,15,22.00
2015,06,29,01,16,21.90
2015,06,29,01,17,21.90
2015,06,29,01,18,21.90
2015,06,29,01,19,21.80
2015,06,29,01,20,21.80
2015,06,29,01,21,21.80
2015,06,29,01,22,21.80
2015,06,29,01,23,21.80
2015,06,29,01,24,21.80
2015,06,29,01,25,21.70
2015,06,29,01,26,21.70
2015,06,29,01,27,21.70
2015,06,29,01,28,21.60
2015,06,29,01,29,21.60
2015,06,29,01,30,21.60
2015,06,29,01,31,21.60
2015,06,29,01,32,21.60
2015,06,29,01,33,21.50
2015,06,29,01,34,21.50
2015,06,29,01,35,21.40
2015,06,29,01,36,21.40
2015,06,29,01,37,21.40
2015,06,29,01,38,21.40
2015,06,29,01,39,21.30
2015,06,29,01,40,21.30
2015,06,29,01,41,21.30
2015,06,29,01,42,21.30
2015,06,29,01,43,21.20
2015,06,29,01,44,21.20
2015,06,29,01,45,21.20
2015,06,29,01,46,21.20
2015,06,29,01,47,21.10
2015,06,29,01,48,21.10
2015,06,29,01,49,21.10
2015,06,29,01,50,21.10
2015,06,29,01,51,21.10
2015,06,29,01,52,21.10
2015,06,29,01,53,21.10
2015,06,29,01,54,21.10
2015,06,29,01,55,21.10
2015,06,29,01,56,21.10
2015,06,29,01,57,21.10
2015,06,29,01,58,21.10
2015,06,29,01,59,21.10
2015,06,29,02,00,21.10
2015,06,29,02,01,21.20
2015,06,29,02,02,21.20
2015,06,29,02,03,21.20
2015,06,29,02,04,21.30
2015,06,29,02,05,21.30
2015,06,29,02,06,21.30
2015,06,29,02,07,21.20
2015,06,29,02,08,21.20
2015,06,29,02,09,21.20
2015,06,29,02,10,21.20
2015,06,29,02,11,21.10
2015,06,29,02,12,21.10
2015,06,29,02,13,21.10
2015,06,29,02,14,21.00
2015,06,29,02,15,21.00
2015,06,29,02,16,20.90
2015,06,29,02,17,20.90
2015,06,29,02,18,20.80
2015,06,29,02,19,20.80
2015,06,29,02,20,20.80
2015,06,29,02,21,20.80
2015,06,29,02,22,20.70
2015,06,29,02,23,20.70
2015,06,29,02,24,20.70
2015,06,29,02,25,20.60
2015,06,29,02,26,20.60
2015,06,29,02,27,20.60
2015,06,29,02,28,20.60
2015,06,29,02,29,20.60
2015,06,29,02,30,20.60
2015,06,29,02,31,20.60
2015,06,29,02,32,20.60
2015,06,29,02,33,20.60
2015,06,29,02,34,20.60
2015,06,29,02,35,20.50
2015,06,29,02,36,20.50
2015,06,29,02,37,20.50
2015,06,29,02,38,20.50
2015,06,29,02,39,20.50
2015,06,29,02,40,20.50
2015,06,29,02,41,20.50
2015,06,29,02,42,20.50
2015,06,29,02,43,20.50
2015,06,29,02,44,20.50
2015,06,29,02,45,20.50
2015,06,29,02,46,20.50
2015,06,29,02,47,20.40
2015,06,29,02,48,20.40
2015,06,29,02,49,20.40
2015,06,29,02,50,20.40
2015,06,29,02,51,20.40
2015,06,29,02,52,20.40
2015,06,29,02,53,20.40
2015,06,29,02,54,20.40
2015,06,29,02,55,20.40
2015,06,29,02,56,20.40
2015,06,29,02,57,20.50
2015,06,29,02,58,20.50
2015,06,29,02,59,20.50
2015,06,29,03,00,20.50
2015,06,29,03,01,20.40
2015,06,29,03,02,20.40
2015,06,29,03,03,20.40
2015,06,29,03,04,20.30
2015,06,29,03,05,20.30
2015,06,29,03,06,20.30
2015,06,29,03,07,20.20
2015,06,29,03,08,20.20
2015,06,29,03,09,20.20
2015,06,29,03,10,20.20
2015,06,29,03,11,20.20
2015,06,29,03,12,20.20
2015,06,29,03,13,20.20
2015,06,29,03,14,20.20
2015,06,29,03,15,20.20
2015,06,29,03,16,20.30
2015,06,29,03,17,20.50
2015,06,29,03,18,20.60
2015,06,29,03,19,20.70
2015,06,29,03,20,20.80
2015,06,29,03,21,20.90
2015,06,29,03,22,21.00
2015,06,29,03,23,21.00
2015,06,29,03,24,21.10
2015,06,29,03,25,21.10
2015,06,29,03,26,21.10
2015,06,29,03,27,21.10
2015,06,29,03,28,21.10
2015,06,29,03,29,21.10
2015,06,29,03,30,21.10
2015,06,29,03,31,21.10
2015,06,29,03,32,21.00
2015,06,29,03,33,21.00
2015,06,29,03,34,21.00
2015,06,29,03,35,21.00
2015,06,29,03,36,20.90
2015,06,29,03,37,20.90
2015,06,29,03,38,20.90
2015,06,29,03,39,20.80
2015,06,29,03,40,20.80
2015,06,29,03,41,20.70
2015,06,29,03,42,20.70
2015,06,29,03,43,20.70
2015,06,29,03,44,20.70
2015,06,29,03,45,20.60
2015,06,29,03,46,20.50
2015,06,29,03,47,20.50
2015,06,29,03,48,20.40
2015,06,29,03,49,20.40
2015,06,29,03,50,20.40
2015,06,29,03,51,20.40
2015,06,29,03,52,20.30
2015,06,29,03,53,20.30
2015,06,29,03,54,20.30
2015,06,29,03,55,20.30
2015,06,29,03,56,20.30
2015,06,29,03,57,20.30
2015,06,29,03,58,20.30
2015,06,29,03,59,20.30
2015,06,29,04,00,20.20
2015,06,29,04,01,20.20
2015,06,29,04,02,20.20
2015,06,29,04,03,20.20
2015,06,29,04,04,20.20
2015,06,29,04,05,20.20
2015,06,29,04,06,20.10
2015,06,29,04,07,20.10
2015,06,29,04,08,20.10
2015,06,29,04,09,20.10
2015,06,29,04,10,20.10
2015,06,29,04,11,20.00
2015,06,29,04,12,20.00
2015,06,29,04,13,20.00
2015,06,29,04,14,19.90
2015,06,29,04,15,19.90
2015,06,29,04,16,19.90
2015,06,29,04,17,19.90
2015,06,29,04,18,19.90
2015,06,29,04,19,19.90
2015,06,29,04,20,19.90
2015,06,29,04,21,19.80
2015,06,29,04,22,19.80
2015,06,29,04,23,19.80
2015,06,29,04,24,19.70
2015,06,29,04,25,19.70
2015,06,29,04,26,19.60
2015,06,29,04,27,19.60
2015,06,29,04,28,19.50
2015,06,29,04,29,19.50
2015,06,29,04,30,19.50
2015,06,29,04,31,19.50
2015,06,29,04,32,19.40
2015,06,29,04,33,19.40
2015,06,29,04,34,19.40
2015,06,29,04,35,19.40
2015,06,29,04,36,19.40
2015,06,29,04,37,19.40
2015,06,29,04,38,19.40
2015,06,29,04,39,19.40
2015,06,29,04,40,19.30
2015,06,29,04,41,19.30
2015,06,29,04,42,19.30
2015,06,29,04,43,19.40
2015,06,29,04,44,19.40
2015,06,29,04,45,19.40
2015,06,29,04,46,19.40
2015,06,29,04,47,19.40
2015,06,29,04,48,19.40
2015,06,29,04,49,19.30
2015,06,29,04,50,19.30
2015,06,29,04,51,19.30
2015,06,29,04,52,19.30
2015,06,29,04,53,19.30
2015,06,29,04,54,19.30
2015,06,29,04,55,19.30
2015,06,29,04,56,19.20
2015,06,29,04,57,19.20
2015,06,29,04,58,19.20
2015,06,29,04,59,19.20
2015,06,29,05,00,19.20
2015,06,29,05,01,19.20
2015,06,29,05,02,19.20
2015,06,29,05,03,19.20
2015,06,29,05,04,19.20
2015,06,29,05,05,19.20
2015,06,29,05,06,19.20
2015,06,29,05,07,19.20
2015,06,29,05,08,19.20
2015,06,29,05,09,19.30
2015,06,29,05,10,19.30
2015,06,29,05,11,19.40
2015,06,29,05,12,19.50
2015,06,29,05,13,19.50
2015,06,29,05,14,19.60
2015,06,29,05,15,19.70
2015,06,29,05,16,19.70
2015,06,29,05,17,19.70
2015,06,29,05,18,19.70
2015,06,29,05,19,19.80
2015,06,29,05,20,19.80
2015,06,29,05,21,19.80
2015,06,29,05,22,19.80
2015,06,29,05,23,19.80
2015,06,29,05,24,19.80
2015,06,29,05,25,19.80
2015,06,29,05,26,19.90
2015,06,29,05,27,20.00
2015,06,29,05,28,20.00
2015,06,29,05,29,20.10
2015,06,29,05,30,20.10
2015,06,29,05,31,20.20
2015,06,29,05,32,20.20
2015,06,29,05,33,20.20
2015,06,29,05,34,20.30
2015,06,29,05,35,20.30
2015,06,29,05,36,20.30
2015,06,29,05,37,20.40
2015,06,29,05,38,20.40
2015,06,29,05,39,20.30
2015,06,29,05,40,20.30
2015,06,29,05,41,20.30
2015,06,29,05,42,20.30
2015,06,29,05,43,20.20
2015,06,29,05,44,20.10
2015,06,29,05,45,20.10
2015,06,29,05,46,20.00
2015,06,29,05,47,19.90
2015,06,29,05,48,19.80
2015,06,29,05,49,19.80
2015,06,29,05,50,19.80
2015,06,29,05,51,19.70
2015,06,29,05,52,19.70
2015,06,29,05,53,19.70
2015,06,29,05,54,19.70
2015,06,29,05,55,19.80
2015,06,29,05,56,19.80
2015,06,29,05,57,19.80
2015,06,29,05,58,19.90
2015,06,29,05,59,19.90
2015,06,29,06,00,19.90
2015,06,29,06,01,20.00
2015,06,29,06,02,20.00
2015,06,29,06,03,20.00
2015,06,29,06,04,20.00
2015,06,29,06,05,19.90
2015,06,29,06,06,19.90
2015,06,29,06,07,19.80
2015,06,29,06,08,19.80
2015,06,29,06,09,19.70
2015,06,29,06,10,19.70
2015,06,29,06,11,19.60
2015,06,29,06,12,19.60
2015,06,29,06,13,19.60
2015,06,29,06,14,19.60
2015,06,29,06,15,19.60
2015,06,29,06,16,19.60
2015,06,29,06,17,19.60
2015,06,29,06,18,19.60
2015,06,29,06,19,19.60
2015,06,29,06,20,19.70
2015,06,29,06,21,19.70
2015,06,29,06,22,19.80
2015,06,29,06,23,19.90
2015,06,29,06,24,20.00
2015,06,29,06,25,20.10
2015,06,29,06,26,20.10
2015,06,29,06,27,20.20
2015,06,29,06,28,20.20
2015,06,29,06,29,20.30
2015,06,29,06,30,20.30
2015,06,29,06,31,20.40
2015,06,29,06,32,20.50
2015,06,29,06,33,20.60
2015,06,29,06,34,20.70
2015,06,29,06,35,20.70
2015,06,29,06,36,20.80
2015,06,29,06,37,20.80
2015,06,29,06,38,20.90
2015,06,29,06,39,20.90
2015,06,29,06,40,20.90
2015,06,29,06,41,20.90
2015,06,29,06,42,20.90
2015,06,29,06,43,20.90
2015,06,29,06,44,20.80
2015,06,29,06,45,20.80
2015,06,29,06,46,20.80
2015,06,29,06,47,20.80
2015,06,29,06,48,20.80
2015,06,29,06,49,20.80
2015,06,29,06,50,20.90
2015,06,29,06,51,20.90
2015,06,29,06,52,20.90
2015,06,29,06,53,21.00
2015,06,29,06,54,21.10
2015,06,29,06,55,21.10
2015,06,29,06,56,21.20
2015,06,29,06,57,21.30
2015,06,29,06,58,21.30
2015,06,29,06,59,21.40
2015,06,29,07,00,21.50
2015,06,29,07,01,21.60
2015,06,29,07,02,21.60
2015,06,29,07,03,21.70
2015,06,29,07,04,21.70
2015,06,29,07,05,21.80
2015,06,29,07,06,21.80
2015,06,29,07,07,21.80
2015,06,29,07,08,21.90
2015,06,29,07,09,21.90
2015,06,29,07,10,21.90
2015,06,29,07,11,22.00
2015,06,29,07,12,22.00
2015,06,29,07,13,22.00
2015,06,29,07,14,22.10
2015,06,29,07,15,22.10
2015,06,29,07,16,22.10
2015,06,29,07,17,22.20
2015,06,29,07,18,22.20
2015,06,29,07,19,22.30
2015,06,29,07,20,22.30
2015,06,29,07,21,22.30
2015,06,29,07,22,22.30
2015,06,29,07,23,22.30
2015,06,29,07,24,22.30
2015,06,29,07,25,22.30
2015,06,29,07,26,22.30
2015,06,29,07,27,22.30
2015,06,29,07,28,22.30
2015,06,29,07,29,22.30
2015,06,29,07,30,22.30
2015,06,29,07,31,22.30
2015,06,29,07,32,22.30
2015,06,29,07,33,22.20
2015,06,29,07,34,22.20
2015,06,29,07,35,22.20
2015,06,29,07,36,22.20
2015,06,29,07,37,22.20
2015,06,29,07,38,22.30
2015,06,29,07,39,22.30
2015,06,29,07,40,22.30
2015,06,29,07,41,22.30
2015,06,29,07,42,22.30
2015,06,29,07,43,22.30
2015,06,29,07,44,22.30
2015,06,29,07,45,22.30
2015,06,29,07,46,22.30
2015,06,29,07,47,22.30
2015,06,29,07,48,22.30
2015,06,29,07,49,22.40
2015,06,29,07,50,22.40
2015,06,29,07,51,22.40
2015,06,29,07,52,22.50
2015,06,29,07,53,22.50
2015,06,29,07,54,22.60
2015,06,29,07,55,22.60
2015,06,29,07,56,22.60
2015,06,29,07,57,22.70
2015,06,29,07,58,22.70
2015,06,29,07,59,22.70
2015,06,29,08,00,22.80
2015,06,29,08,01,22.80
2015,06,29,08,02,22.90
2015,06,29,08,03,22.90
2015,06,29,08,04,23.00
2015,06,29,08,05,23.10
2015,06,29,08,06,23.10
2015,06,29,08,07,23.20
2015,06,29,08,08,23.20
2015,06,29,08,09,23.30
2015,06,29,08,10,23.40
2015,06,29,08,11,23.40
2015,06,29,08,12,23.50
2015,06,29,08,13,23.60
2015,06,29,08,14,23.60
2015,06,29,08,15,23.70
2015,06,29,08,16,23.70
2015,06,29,08,17,23.80
2015,06,29,08,18,23.80
2015,06,29,08,19,23.80
2015,06,29,08,20,23.80
2015,06,29,08,21,23.80
2015,06,29,08,22,23.80
2015,06,29,08,23,23.80
2015,06,29,08,24,23.90
2015,06,29,08,25,23.90
2015,06,29,08,26,23.90
2015,06,29,08,27,23.90
2015,06,29,08,28,23.90
2015,06,29,08,29,24.00
2015,06,29,08,30,24.00
2015,06,29,08,31,24.10
2015,06,29,08,32,24.10
2015,06,29,08,33,24.20
2015,06,29,08,34,24.20
2015,06,29,08,35,24.30
2015,06,29,08,36,24.30
2015,06,29,08,37,24.40
2015,06,29,08,38,24.50
2015,06,29,08,39,24.50
2015,06,29,08,40,24.60
2015,06,29,08,41,24.80
2015,06,29,08,42,24.90
2015,06,29,08,43,25.00
2015,06,29,08,44,25.10
2015,06,29,08,45,25.20
2015,06,29,08,46,25.20
2015,06,29,08,47,25.10
2015,06,29,08,48,25.10
2015,06,29,08,49,25.00
2015,06,29,08,50,25.10
2015,06,29,08,51,25.10
2015,06,29,08,52,25.20
2015,06,29,08,53,25.20
2015,06,29,08,54,25.20
2015,06,29,08,55,25.30
2015,06,29,08,56,25.30
2015,06,29,08,57,25.30
2015,06,29,08,58,25.30
2015,06,29,08,59,25.30
2015,06,29,09,00,25.30
2015,06,29,09,01,25.30
2015,06,29,09,02,25.30
2015,06,29,09,03,25.20
2015,06,29,09,04,25.20
2015,06,29,09,05,25.20
2015,06,29,09,06,25.20
2015,06,29,09,07,25.20
2015,06,29,09,08,25.20
2015,06,29,09,09,25.20
2015,06,29,09,10,25.20
2015,06,29,09,11,25.30
2015,06,29,09,12,25.30
2015,06,29,09,13,25.40
2015,06,29,09,14,25.50
2015,06,29,09,15,25.50
2015,06,29,09,16,25.60
2015,06,29,09,17,25.60
2015,06,29,09,18,25.60
2015,06,29,09,19,25.70
2015,06,29,09,20,25.70
2015,06,29,09,21,25.70
2015,06,29,09,22,25.70
2015,06,29,09,23,25.70
2015,06,29,09,24,25.70
2015,06,29,09,25,25.70
2015,06,29,09,26,25.70
2015,06,29,09,27,25.70
2015,06,29,09,28,25.70
2015,06,29,09,29,25.70
2015,06,29,09,30,25.70
2015,06,29,09,31,25.70
2015,06,29,09,32,25.60
2015,06,29,09,33,25.60
2015,06,29,09,34,25.60
2015,06,29,09,35,25.60
2015,06,29,09,36,25.60
2015,06,29,09,37,25.60
2015,06,29,09,38,25.50
2015,06,29,09,39,25.40
2015,06,29,09,40,25.40
2015,06,29,09,41,25.30
2015,06,29,09,42,25.30
2015,06,29,09,43,25.30
2015,06,29,09,44,25.30
2015,06,29,09,45,25.30
2015,06,29,09,46,25.30
2015,06,29,09,47,25.30
2015,06,29,09,48,25.30
2015,06,29,09,49,25.30
2015,06,29,09,50,25.40
2015,06,29,09,51,25.40
2015,06,29,09,52,25.50
2015,06,29,09,53,25.50
2015,06,29,09,54,25.60
2015,06,29,09,55,25.70
2015,06,29,09,56,25.70
2015,06,29,09,57,25.80
2015,06,29,09,58,25.80
2015,06,29,09,59,25.80
2015,06,29,10,00,25.80
2015,06,29,10,01,25.80
2015,06,29,10,02,25.80
2015,06,29,10,03,25.90
2015,06,29,10,04,25.90
2015,06,29,10,05,26.00
2015,06,29,10,06,26.10
2015,06,29,10,07,26.10
2015,06,29,10,08,26.20
2015,06,29,10,09,26.30
2015,06,29,10,10,26.30
2015,06,29,10,11,26.40
2015,06,29,10,12,26.40
2015,06,29,10,13,26.40
2015,06,29,10,14,26.50
2015,06,29,10,15,26.60
2015,06,29,10,16,26.70
2015,06,29,10,17,26.70
2015,06,29,10,18,26.70
2015,06,29,10,19,26.80
2015,06,29,10,20,26.80
2015,06,29,10,21,26.80
2015,06,29,10,22,26.80
2015,06,29,10,23,26.90
2015,06,29,10,24,26.90
2015,06,29,10,25,26.90
2015,06,29,10,26,26.80
2015,06,29,10,27,26.80
2015,06,29,10,28,26.80
2015,06,29,10,29,26.80
2015,06,29,10,30,26.80
2015,06,29,10,31,26.90
2015,06,29,10,32,26.90
2015,06,29,10,33,27.00
2015,06,29,10,34,27.10
2015,06,29,10,35,27.20
2015,06,29,10,36,27.30
2015,06,29,10,37,27.40
2015,06,29,10,38,27.50
2015,06,29,10,39,27.60
2015,06,29,10,40,27.70
2015,06,29,10,41,27.80
2015,06,29,10,42,27.80
2015,06,29,10,43,27.70
2015,06,29,10,44,27.70
2015,06,29,10,45,27.70
2015,06,29,10,46,27.70
2015,06,29,10,47,27.70
2015,06,29,10,48,27.60
2015,06,29,10,49,27.60
2015,06,29,10,50,27.60
2015,06,29,10,51,27.60
2015,06,29,10,52,27.60
2015,06,29,10,53,27.60
2015,06,29,10,54,27.50
2015,06,29,10,55,27.50
2015,06,29,10,56,27.50
2015,06,29,10,57,27.50
2015,06,29,10,58,27.50
2015,06,29,10,59,27.60
2015,06,29,11,00,27.60
2015,06,29,11,01,27.60
2015,06,29,11,02,27.60
2015,06,29,11,03,27.60
2015,06,29,11,04,27.70
2015,06,29,11,05,27.70
2015,06,29,11,06,27.70
2015,06,29,11,07,27.70
2015,06,29,11,08,27.80
2015,06,29,11,09,27.70
2015,06,29,11,10,27.60
2015,06,29,11,11,27.50
2015,06,29,11,12,27.50
2015,06,29,11,13,27.50
2015,06,29,11,14,27.60
2015,06,29,11,15,27.70
2015,06,29,11,16,27.70
2015,06,29,11,17,27.80
2015,06,29,11,18,27.90
2015,06,29,11,19,27.90
2015,06,29,11,20,27.90
2015,06,29,11,21,27.90
2015,06,29,11,22,27.90
2015,06,29,11,23,27.80
2015,06,29,11,24,27.70
2015,06,29,11,25,27.70
2015,06,29,11,26,27.70
2015,06,29,11,27,27.70
2015,06,29,11,28,27.80
2015,06,29,11,29,27.80
2015,06,29,11,30,28.00
2015,06,29,11,31,28.00
2015,06,29,11,32,28.10
2015,06,29,11,33,28.10
2015,06,29,11,34,28.10
2015,06,29,11,35,28.10
2015,06,29,11,36,28.10
2015,06,29,11,37,28.10
2015,06,29,11,38,28.10
2015,06,29,11,39,28.10
2015,06,29,11,40,28.00
2015,06,29,11,41,28.00
2015,06,29,11,42,28.00
2015,06,29,11,43,27.90
2015,06,29,11,44,27.90
2015,06,29,11,45,27.80
2015,06,29,11,46,27.80
2015,06,29,11,47,27.80
2015,06,29,11,48,27.80
2015,06,29,11,49,27.80
2015,06,29,11,50,27.70
2015,06,29,11,51,27.80
2015,06,29,11,52,27.80
2015,06,29,11,53,27.80
2015,06,29,11,54,27.80
2015,06,29,11,55,27.80
2015,06,29,11,56,27.80
2015,06,29,11,57,27.70
2015,06,29,11,58,27.70
2015,06,29,11,59,27.70
2015,06,29,12,00,27.70
2015,06,29,12,01,27.60
2015,06,29,12,02,27.60
2015,06,29,12,03,27.60
2015,06,29,12,04,27.50
2015,06,29,12,05,27.50
2015,06,29,12,06,27.50
2015,06,29,12,07,27.60
2015,06,29,12,08,27.60
2015,06,29,12,09,27.70
2015,06,29,12,10,27.70
2015,06,29,12,11,27.70
2015,06,29,12,12,27.70
2015,06,29,12,13,27.70
2015,06,29,12,14,27.60
2015,06,29,12,15,27.60
2015,06,29,12,16,27.60
2015,06,29,12,17,27.60
2015,06,29,12,18,27.60
2015,06,29,12,19,27.50
2015,06,29,12,20,27.40
2015,06,29,12,21,27.40
2015,06,29,12,22,27.40
2015,06,29,12,23,27.40
2015,06,29,12,24,27.40
2015,06,29,12,25,27.30
2015,06,29,12,26,27.30
2015,06,29,12,27,27.30
2015,06,29,12,28,27.30
2015,06,29,12,29,27.30
2015,06,29,12,30,27.30
2015,06,29,12,31,27.30
2015,06,29,12,32,27.30
2015,06,29,12,33,27.30
2015,06,29,12,34,27.30
2015,06,29,12,35,27.30
2015,06,29,12,36,27.30
2015,06,29,12,37,27.40
2015,06,29,12,38,27.40
2015,06,29,12,39,27.40
2015,06,29,12,40,27.50
2015,06,29,12,41,27.50
2015,06,29,12,42,27.60
2015,06,29,12,43,27.60
2015,06,29,12,44,27.70
2015,06,29,12,45,27.80
2015,06,29,12,46,27.90
2015,06,29,12,47,28.00
2015,06,29,12,48,28.10
2015,06,29,12,49,28.10
2015,06,29,12,50,28.20
2015,06,29,12,51,28.30
2015,06,29,12,52,28.30
2015,06,29,12,53,28.20
2015,06,29,12,54,28.30
2015,06,29,12,55,28.30
2015,06,29,12,56,28.30
2015,06,29,12,57,28.30
2015,06,29,12,58,28.20
2015,06,29,12,59,28.10
2015,06,29,13,00,28.10
2015,06,29,13,01,28.00
2015,06,29,13,02,27.90
2015,06,29,13,03,27.90
2015,06,29,13,04,28.00
2015,06,29,13,05,28.10
2015,06,29,13,06,28.20
2015,06,29,13,07,28.30
2015,06,29,13,08,28.40
2015,06,29,13,09,28.50
2015,06,29,13,10,28.60
2015,06,29,13,11,28.60
2015,06,29,13,12,28.70
2015,06,29,13,13,28.80
2015,06,29,13,14,28.80
2015,06,29,13,15,28.90
2015,06,29,13,16,28.90
2015,06,29,13,17,28.90
2015,06,29,13,18,28.90
2015,06,29,13,19,28.90
2015,06,29,13,20,28.90
2015,06,29,13,21,28.90
2015,06,29,13,22,28.90
2015,06,29,13,23,28.80
2015,06,29,13,24,28.80
2015,06,29,13,25,28.90
2015,06,29,13,26,28.90
2015,06,29,13,27,28.90
2015,06,29,13,28,29.00
2015,06,29,13,29,29.00
2015,06,29,13,30,29.00
2015,06,29,13,31,29.00
2015,06,29,13,32,29.00
2015,06,29,13,33,29.00
2015,06,29,13,34,29.00
2015,06,29,13,35,28.90
2015,06,29,13,36,28.90
2015,06,29,13,37,28.90
2015,06,29,13,38,28.90
2015,06,29,13,39,28.80
2015,06,29,13,40,28.80
2015,06,29,13,41,28.80
2015,06,29,13,42,28.80
2015,06,29,13,43,28.80
2015,06,29,13,44,28.70
2015,06,29,13,45,28.70
2015,06,29,13,46,28.70
2015,06,29,13,47,28.70
2015,06,29,13,48,28.70
2015,06,29,13,49,28.70
2015,06,29,13,50,28.70
2015,06,29,13,51,28.70
2015,06,29,13,52,28.70
2015,06,29,13,53,28.80
2015,06,29,13,54,28.90
2015,06,29,13,55,29.00
2015,06,29,13,56,29.10
2015,06,29,13,57,29.20
2015,06,29,13,58,29.20
2015,06,29,13,59,29.20
2015,06,29,14,00,29.20
2015,06,29,14,01,29.20
2015,06,29,14,02,29.30
2015,06,29,14,03,29.30
2015,06,29,14,04,29.40
2015,06,29,14,05,29.40
2015,06,29,14,06,29.40
2015,06,29,14,07,29.50
2015,06,29,14,08,29.50
2015,06,29,14,09,29.40
2015,06,29,14,10,29.40
2015,06,29,14,11,29.40
2015,06,29,14,12,29.40
2015,06,29,14,13,29.40
2015,06,29,14,14,29.40
2015,06,29,14,15,29.50
2015,06,29,14,16,29.60
2015,06,29,14,17,29.70
2015,06,29,14,18,29.70
2015,06,29,14,19,29.70
2015,06,29,14,20,29.60
2015,06,29,14,21,29.60
2015,06,29,14,22,29.60
2015,06,29,14,23,29.60
2015,06,29,14,24,29.60
2015,06,29,14,25,29.70
2015,06,29,14,26,29.80
2015,06,29,14,27,29.90
2015,06,29,14,28,30.00
2015,06,29,14,29,30.10
2015,06,29,14,30,30.20
2015,06,29,14,31,30.20
2015,06,29,14,32,30.20
2015,06,29,14,33,30.30
2015,06,29,14,34,30.30
2015,06,29,14,35,30.40
2015,06,29,14,36,30.40
2015,06,29,14,37,30.50
2015,06,29,14,38,30.50
2015,06,29,14,39,30.50
2015,06,29,14,40,30.40
2015,06,29,14,41,30.40
2015,06,29,14,42,30.40
2015,06,29,14,43,30.30
2015,06,29,14,44,30.30
2015,06,29,14,45,30.30
2015,06,29,14,46,30.40
2015,06,29,14,47,30.40
2015,06,29,14,48,30.30
2015,06,29,14,49,30.20
2015,06,29,14,50,30.10
2015,06,29,14,51,30.00
2015,06,29,14,52,29.90
2015,06,29,14,53,29.90
2015,06,29,14,54,29.90
2015,06,29,14,55,29.90
2015,06,29,14,56,29.90
2015,06,29,14,57,29.90
2015,06,29,14,58,29.90
2015,06,29,14,59,29.90
2015,06,29,15,00,29.80
2015,06,29,15,01,29.80
2015,06,29,15,02,29.80
2015,06,29,15,03,29.80
2015,06,29,15,04,29.80
2015,06,29,15,05,29.70
2015,06,29,15,06,29.70
2015,06,29,15,07,29.70
2015,06,29,15,08,29.70
2015,06,29,15,09,29.70
2015,06,29,15,10,29.60
2015,06,29,15,11,29.60
2015,06,29,15,12,29.60
2015,06,29,15,13,29.60
2015,06,29,15,14,29.50
2015,06,29,15,15,29.50
2015,06,29,15,16,29.40
2015,06,29,15,17,29.40
2015,06,29,15,18,29.40
2015,06,29,15,19,29.30
2015,06,29,15,20,29.30
2015,06,29,15,21,29.30
2015,06,29,15,22,29.20
2015,06,29,15,23,29.10
2015,06,29,15,24,29.00
2015,06,29,15,25,28.90
2015,06,29,15,26,28.90
2015,06,29,15,27,28.80
2015,06,29,15,28,28.80
2015,06,29,15,29,28.80
2015,06,29,15,30,28.70
2015,06,29,15,31,28.70
2015,06,29,15,32,28.70
2015,06,29,15,33,28.70
2015,06,29,15,34,28.60
2015,06,29,15,35,28.60
2015,06,29,15,36,28.60
2015,06,29,15,37,28.60
2015,06,29,15,38,28.60
2015,06,29,15,39,28.60
2015,06,29,15,40,28.50
2015,06,29,15,41,28.50
2015,06,29,15,42,28.50
2015,06,29,15,43,28.50
2015,06,29,15,44,28.50
2015,06,29,15,45,28.50
2015,06,29,15,46,28.50
2015,06,29,15,47,28.40
2015,06,29,15,48,28.40
2015,06,29,15,49,28.40
2015,06,29,15,50,28.40
2015,06,29,15,51,28.30
2015,06,29,15,52,28.30
2015,06,29,15,53,28.20
2015,06,29,15,54,28.10
2015,06,29,15,55,28.00
2015,06,29,15,56,27.90
2015,06,29,15,57,27.80
2015,06,29,15,58,27.60
2015,06,29,15,59,27.40
2015,06,29,16,00,27.20
2015,06,29,16,01,27.00
2015,06,29,16,02,26.80
2015,06,29,16,03,26.60
2015,06,29,16,04,26.50
2015,06,29,16,05,26.30
2015,06,29,16,06,26.20
2015,06,29,16,07,26.10
2015,06,29,16,08,26.00
2015,06,29,16,09,25.90
2015,06,29,16,10,25.90
2015,06,29,16,11,25.80
2015,06,29,16,12,25.80
2015,06,29,16,13,25.70
2015,06,29,16,14,25.60
2015,06,29,16,15,25.50
2015,06,29,16,16,25.40
2015,06,29,16,17,25.30
2015,06,29,16,18,25.30
2015,06,29,16,19,25.40
2015,06,29,16,20,25.40
2015,06,29,16,21,25.40
2015,06,29,16,22,25.40
2015,06,29,16,23,25.40
2015,06,29,16,24,25.30
2015,06,29,16,25,25.40
2015,06,29,16,26,25.40
2015,06,29,16,27,25.40
2015,06,29,16,28,25.40
2015,06,29,16,29,25.40
2015,06,29,16,30,25.40
2015,06,29,16,31,25.50
2015,06,29,16,32,25.60
2015,06,29,16,33,25.70
2015,06,29,16,34,25.80
2015,06,29,16,35,25.90
2015,06,29,16,36,26.00
2015,06,29,16,37,26.00
2015,06,29,16,38,26.10
2015,06,29,16,39,26.20
2015,06,29,16,40,26.30
2015,06,29,16,41,26.50
2015,06,29,16,42,26.60
2015,06,29,16,43,26.70
2015,06,29,16,44,26.80
2015,06,29,16,45,26.90
2015,06,29,16,46,26.90
2015,06,29,16,47,26.90
2015,06,29,16,48,27.00
2015,06,29,16,49,27.00
2015,06,29,16,50,26.90
2015,06,29,16,51,26.90
2015,06,29,16,52,26.80
2015,06,29,16,53,26.80
2015,06,29,16,54,26.80
2015,06,29,16,55,26.90
2015,06,29,16,56,26.80
2015,06,29,16,57,26.70
2015,06,29,16,58,26.50
2015,06,29,16,59,26.40
2015,06,29,17,00,26.20
2015,06,29,17,01,26.10
2015,06,29,17,02,26.10
2015,06,29,17,03,26.10
2015,06,29,17,04,26.20
2015,06,29,17,05,26.30
2015,06,29,17,06,26.30
2015,06,29,17,07,26.40
2015,06,29,17,08,26.50
2015,06,29,17,09,26.60
2015,06,29,17,10,26.70
2015,06,29,17,11,26.80
2015,06,29,17,12,26.90
2015,06,29,17,13,27.00
2015,06,29,17,14,27.20
2015,06,29,17,15,27.30
2015,06,29,17,16,27.50
2015,06,29,17,17,27.60
2015,06,29,17,18,27.50
2015,06,29,17,19,27.50